COSMOS 2514 (751)

Last updated on Nov. 12, 2019, 4:19 a.m. UTC

1 41330U 16008A   19315.03249433 -.00000060  00000-0  00000+0 0  9999
2 41330  65.4299  34.8410 0011535 211.1522  49.9187  2.13102928 29251
UTC
Height (km)
Latitude
Longitude
Inclination
Orbital Period
UTC large
Height (km)
Speed (km/s)
/
Latitude / Longitude
Inclination (degrees)
Orbital Period (minutes)
Azimuth
Elevation
Range (km)
Doppler Factor
iOS Compass Heading
iOS Angle

Next 30 passes for location: Hong Kong

Rise time Rise Azimuth (degrees) Set time Set Azimuth (degrees) Duration Max altitude (degrees)

No matching passes for this satellites